Time,TemperatureF,DewpointF,PressureIn,WindDirection,WindDirectionDegrees,WindSpeedMPH,WindSpeedGustMPH,Humidity,HourlyPrecipIn,Conditions,Clouds,dailyrainin,SoftwareType,DateUTC
2013-05-27 00:02:00,74.0,65.0,29.89,ESE,121,3.0,3.0,74,0.00,,,0.00,,2013-05-27 05:02:00,
2013-05-27 00:12:00,74.0,65.0,29.89,ESE,121,3.0,3.0,74,0.00,,,0.00,,2013-05-27 05:12:00,
2013-05-27 00:22:00,74.0,65.0,29.89,ESE,121,3.0,3.0,74,0.00,,,0.00,,2013-05-27 05:22:00,
2013-05-27 00:32:00,74.0,65.0,29.88,SW,219,2.0,5.0,74,0.00,,,0.00,,2013-05-27 05:32:00,
2013-05-27 00:42:00,74.0,65.0,29.88,SW,219,2.0,5.0,74,0.00,,,0.00,,2013-05-27 05:42:00,
2013-05-27 00:52:00,74.0,65.0,29.88,SW,219,2.0,5.0,74,0.00,,,0.00,,2013-05-27 05:52:00,
2013-05-27 01:01:00,73.0,65.0,29.90,ESE,113,2.0,4.0,76,0.00,,,0.00,,2013-05-27 06:01:00,
2013-05-27 01:11:00,73.0,65.0,29.90,ESE,113,2.0,4.0,76,0.00,,,0.00,,2013-05-27 06:11:00,
2013-05-27 01:21:00,73.0,65.0,29.90,ESE,113,2.0,4.0,76,0.00,,,0.00,,2013-05-27 06:21:00,
2013-05-27 01:32:00,72.0,65.0,29.91,ESE,113,1.0,2.0,78,0.00,,,0.00,,2013-05-27 06:32:00,
2013-05-27 01:42:00,72.0,65.0,29.91,ESE,113,1.0,2.0,78,0.00,,,0.00,,2013-05-27 06:42:00,
2013-05-27 01:52:00,72.0,65.0,29.91,ESE,113,1.0,2.0,78,0.00,,,0.00,,2013-05-27 06:52:00,
2013-05-27 02:02:00,72.0,65.0,29.91,SE,127,2.0,4.0,79,0.00,,,0.00,,2013-05-27 07:02:00,
2013-05-27 02:11:00,72.0,65.0,29.91,SE,127,2.0,4.0,79,0.00,,,0.00,,2013-05-27 07:11:00,
2013-05-27 02:21:00,72.0,65.0,29.91,SE,127,2.0,4.0,79,0.00,,,0.00,,2013-05-27 07:21:00,
2013-05-27 02:32:00,72.0,64.0,29.89,SE,139,2.0,5.0,77,0.00,,,0.00,,2013-05-27 07:32:00,
2013-05-27 02:41:00,72.0,64.0,29.89,SE,139,2.0,5.0,77,0.00,,,0.00,,2013-05-27 07:41:00,
2013-05-27 02:52:00,72.0,64.0,29.89,SE,139,2.0,5.0,77,0.00,,,0.00,,2013-05-27 07:52:00,
2013-05-27 03:02:00,72.0,65.0,29.89,SE,131,3.0,4.0,78,0.00,,,0.00,,2013-05-27 08:02:00,
2013-05-27 03:11:00,72.0,65.0,29.89,SE,131,3.0,4.0,78,0.00,,,0.00,,2013-05-27 08:11:00,
2013-05-27 03:22:00,72.0,65.0,29.89,SE,131,3.0,4.0,78,0.00,,,0.00,,2013-05-27 08:22:00,
2013-05-27 03:32:00,72.0,65.0,29.88,SSE,160,4.0,4.0,78,0.00,,,0.00,,2013-05-27 08:32:00,
2013-05-27 03:42:00,72.0,65.0,29.88,SSE,160,4.0,4.0,78,0.00,,,0.00,,2013-05-27 08:42:00,
2013-05-27 03:52:00,72.0,65.0,29.88,SSE,160,4.0,4.0,78,0.00,,,0.00,,2013-05-27 08:52:00,
2013-05-27 04:02:00,72.0,64.0,29.86,SSE,163,5.0,5.0,77,0.00,,,0.00,,2013-05-27 09:02:00,
2013-05-27 04:11:00,72.0,64.0,29.86,SSE,163,5.0,5.0,77,0.00,,,0.00,,2013-05-27 09:11:00,
2013-05-27 04:21:00,72.0,64.0,29.86,SSE,163,5.0,5.0,77,0.00,,,0.00,,2013-05-27 09:21:00,
2013-05-27 04:33:00,71.0,64.0,29.85,SE,135,3.0,5.0,78,0.00,,,0.00,,2013-05-27 09:33:00,
2013-05-27 04:42:00,71.0,64.0,29.85,SE,135,3.0,5.0,78,0.00,,,0.00,,2013-05-27 09:42:00,
2013-05-27 04:53:00,71.0,64.0,29.85,SE,135,3.0,5.0,78,0.00,,,0.00,,2013-05-27 09:53:00,
2013-05-27 05:02:00,71.0,64.0,29.84,ESE,119,3.0,4.0,79,0.00,,,0.00,,2013-05-27 10:02:00,
2013-05-27 05:12:00,71.0,64.0,29.84,ESE,119,3.0,4.0,79,0.00,,,0.00,,2013-05-27 10:12:00,
2013-05-27 05:22:00,71.0,64.0,29.84,ESE,119,3.0,4.0,79,0.00,,,0.00,,2013-05-27 10:22:00,
2013-05-27 05:32:00,71.0,64.0,29.83,ESE,120,2.0,5.0,78,0.00,,,0.00,,2013-05-27 10:32:00,
2013-05-27 05:42:00,71.0,64.0,29.83,ESE,120,2.0,5.0,78,0.00,,,0.00,,2013-05-27 10:42:00,
2013-05-27 05:52:00,71.0,64.0,29.83,ESE,120,2.0,5.0,78,0.00,,,0.00,,2013-05-27 10:52:00,
2013-05-27 06:02:00,70.0,63.0,29.80,SE,136,5.0,14.0,78,0.00,,,0.00,,2013-05-27 11:02:00,
2013-05-27 06:11:00,70.0,63.0,29.80,SE,136,5.0,14.0,78,0.00,,,0.00,,2013-05-27 11:11:00,
2013-05-27 06:22:00,70.0,63.0,29.80,SE,136,5.0,14.0,78,0.00,,,0.00,,2013-05-27 11:22:00,
2013-05-27 06:32:00,70.0,63.0,29.80,SE,135,4.0,5.0,78,0.00,,,0.00,,2013-05-27 11:32:00,
2013-05-27 06:42:00,70.0,63.0,29.80,SE,135,4.0,5.0,78,0.00,,,0.00,,2013-05-27 11:42:00,
2013-05-27 06:52:00,70.0,63.0,29.80,SE,135,4.0,5.0,78,0.00,,,0.00,,2013-05-27 11:52:00,
2013-05-27 07:01:00,70.0,63.0,29.79,SSE,157,5.0,5.0,79,0.00,,,0.00,,2013-05-27 12:01:00,
2013-05-27 07:11:00,70.0,63.0,29.79,SSE,157,5.0,5.0,79,0.00,,,0.00,,2013-05-27 12:11:00,
2013-05-27 07:22:00,70.0,63.0,29.79,SSE,157,5.0,5.0,79,0.00,,,0.00,,2013-05-27 12:22:00,
2013-05-27 07:32:00,70.0,64.0,29.78,SSE,161,4.0,4.0,80,0.00,,,0.00,,2013-05-27 12:32:00,
2013-05-27 07:42:00,70.0,64.0,29.78,SSE,161,4.0,4.0,80,0.00,,,0.00,,2013-05-27 12:42:00,
2013-05-27 07:52:00,70.0,64.0,29.78,SSE,161,4.0,4.0,80,0.00,,,0.00,,2013-05-27 12:52:00,
2013-05-27 08:01:00,70.0,64.0,29.82,SSW,195,1.0,2.0,81,0.00,,,0.00,,2013-05-27 13:01:00,
2013-05-27 08:11:00,70.0,64.0,29.82,SSW,195,1.0,2.0,81,0.00,,,0.00,,2013-05-27 13:11:00,
2013-05-27 08:22:00,70.0,64.0,29.82,SSW,195,1.0,2.0,81,0.00,,,0.00,,2013-05-27 13:22:00,
2013-05-27 08:32:00,64.0,61.0,29.83,North,3,9.0,9.0,90,0.12,,,0.12,,2013-05-27 13:32:00,
2013-05-27 08:41:00,64.0,61.0,29.83,North,3,9.0,9.0,90,0.12,,,0.12,,2013-05-27 13:41:00,
2013-05-27 08:53:00,64.0,61.0,29.83,North,3,9.0,9.0,90,0.12,,,0.12,,2013-05-27 13:53:00,
2013-05-27 09:02:00,63.0,60.0,29.82,NNE,31,3.0,3.0,90,0.29,,,0.29,,2013-05-27 14:02:00,
2013-05-27 09:11:00,63.0,60.0,29.82,NNE,31,3.0,3.0,90,0.29,,,0.29,,2013-05-27 14:11:00,
2013-05-27 09:22:00,63.0,60.0,29.82,NNE,31,3.0,3.0,90,0.29,,,0.29,,2013-05-27 14:22:00,
2013-05-27 09:32:00,63.0,60.0,29.81,NE,41,1.0,2.0,90,0.78,,,0.91,,2013-05-27 14:32:00,
2013-05-27 09:42:00,63.0,60.0,29.81,NE,41,1.0,2.0,90,0.78,,,0.91,,2013-05-27 14:42:00,
2013-05-27 09:52:00,63.0,60.0,29.81,NE,41,1.0,2.0,90,0.78,,,0.91,,2013-05-27 14:52:00,
2013-05-27 10:01:00,63.0,60.0,29.84,NE,41,2.0,4.0,90,0.92,,,1.21,,2013-05-27 15:01:00,
2013-05-27 10:11:00,63.0,60.0,29.84,NE,41,2.0,4.0,90,0.92,,,1.21,,2013-05-27 15:11:00,
2013-05-27 10:21:00,63.0,60.0,29.84,NE,41,2.0,4.0,90,0.92,,,1.21,,2013-05-27 15:21:00,
2013-05-27 10:33:00,63.0,60.0,29.84,NNE,15,4.0,7.0,90,0.52,,,1.41,,2013-05-27 15:33:00,
2013-05-27 10:43:00,63.0,60.0,29.84,NNE,15,4.0,7.0,90,0.52,,,1.41,,2013-05-27 15:43:00,
2013-05-27 10:53:00,63.0,60.0,29.84,NNE,15,4.0,7.0,90,0.52,,,1.41,,2013-05-27 15:53:00,
2013-05-27 11:03:00,62.0,59.0,29.85,NE,45,0.0,2.0,90,0.56,,,1.78,,2013-05-27 16:03:00,
2013-05-27 11:12:00,62.0,59.0,29.85,NE,45,0.0,2.0,90,0.56,,,1.78,,2013-05-27 16:12:00,
2013-05-27 11:23:00,62.0,59.0,29.85,NE,45,0.0,2.0,90,0.56,,,1.78,,2013-05-27 16:23:00,
2013-05-27 11:33:00,62.0,59.0,29.89,NNE,13,4.0,6.0,90,0.41,,,1.84,,2013-05-27 16:33:00,
2013-05-27 11:42:00,62.0,59.0,29.89,NNE,13,4.0,6.0,90,0.41,,,1.84,,2013-05-27 16:42:00,
2013-05-27 11:53:00,62.0,59.0,29.89,NNE,13,4.0,6.0,90,0.41,,,1.84,,2013-05-27 16:53:00,
2013-05-27 12:02:00,62.0,59.0,29.85,NNE,17,5.0,5.0,90,0.12,,,1.91,,2013-05-27 17:02:00,
2013-05-27 12:11:00,62.0,59.0,29.85,NNE,17,5.0,5.0,90,0.12,,,1.91,,2013-05-27 17:11:00,
2013-05-27 12:22:00,62.0,59.0,29.85,NNE,17,5.0,5.0,90,0.12,,,1.91,,2013-05-27 17:22:00,
2013-05-27 12:32:00,62.0,59.0,29.85,North,10,0.0,2.0,90,0.20,,,2.05,,2013-05-27 17:32:00,
2013-05-27 12:43:00,62.0,59.0,29.85,North,10,0.0,2.0,90,0.20,,,2.05,,2013-05-27 17:43:00,
2013-05-27 12:52:00,62.0,59.0,29.85,North,10,0.0,2.0,90,0.20,,,2.05,,2013-05-27 17:52:00,
2013-05-27 13:02:00,62.0,59.0,29.80,SE,137,4.0,13.0,90,0.14,,,2.05,,2013-05-27 18:02:00,
2013-05-27 13:11:00,62.0,59.0,29.80,SE,137,4.0,13.0,90,0.14,,,2.05,,2013-05-27 18:11:00,
2013-05-27 13:22:00,62.0,59.0,29.80,SE,137,4.0,13.0,90,0.14,,,2.05,,2013-05-27 18:22:00,
2013-05-27 13:32:00,63.0,60.0,29.79,ESE,109,5.0,9.0,90,0.00,,,2.05,,2013-05-27 18:32:00,
2013-05-27 13:42:00,63.0,60.0,29.79,ESE,109,5.0,9.0,90,0.00,,,2.05,,2013-05-27 18:42:00,
2013-05-27 13:52:00,63.0,60.0,29.79,ESE,109,5.0,9.0,90,0.00,,,2.05,,2013-05-27 18:52:00,
2013-05-27 14:01:00,65.0,62.0,29.76,East,80,2.0,6.0,90,0.00,,,2.05,,2013-05-27 19:01:00,
2013-05-27 14:11:00,65.0,62.0,29.76,East,80,2.0,6.0,90,0.00,,,2.05,,2013-05-27 19:11:00,
2013-05-27 14:21:00,65.0,62.0,29.76,East,80,2.0,6.0,90,0.00,,,2.05,,2013-05-27 19:21:00,
2013-05-27 14:32:00,66.0,63.0,29.75,SSE,159,4.0,7.0,90,0.01,,,2.06,,2013-05-27 19:32:00,
2013-05-27 14:42:00,66.0,63.0,29.75,SSE,159,4.0,7.0,90,0.01,,,2.06,,2013-05-27 19:42:00,
2013-05-27 14:52:00,66.0,63.0,29.75,SSE,159,4.0,7.0,90,0.01,,,2.06,,2013-05-27 19:52:00,
2013-05-27 15:01:00,69.0,66.0,29.73,SE,143,5.0,7.0,90,0.01,,,2.06,,2013-05-27 20:01:00,
2013-05-27 15:11:00,69.0,66.0,29.73,SE,143,5.0,7.0,90,0.01,,,2.06,,2013-05-27 20:11:00,
2013-05-27 15:22:00,69.0,66.0,29.73,SE,143,5.0,7.0,90,0.01,,,2.06,,2013-05-27 20:22:00,
2013-05-27 15:32:00,72.0,69.0,29.72,SSE,149,4.0,4.0,90,0.00,,,2.06,,2013-05-27 20:32:00,
2013-05-27 15:42:00,72.0,69.0,29.72,SSE,149,4.0,4.0,90,0.00,,,2.06,,2013-05-27 20:42:00,
2013-05-27 15:52:00,72.0,69.0,29.72,SSE,149,4.0,4.0,90,0.00,,,2.06,,2013-05-27 20:52:00,
2013-05-27 16:01:00,75.0,70.0,29.71,South,180,5.0,5.0,84,0.00,,,2.06,,2013-05-27 21:01:00,
2013-05-27 16:12:00,75.0,70.0,29.71,South,180,5.0,5.0,84,0.00,,,2.06,,2013-05-27 21:12:00,
2013-05-27 16:21:00,75.0,70.0,29.71,South,180,5.0,5.0,84,0.00,,,2.06,,2013-05-27 21:21:00,
2013-05-27 16:33:00,76.0,70.0,29.69,SE,139,4.0,7.0,81,0.00,,,2.06,,2013-05-27 21:33:00,
2013-05-27 16:43:00,76.0,70.0,29.69,SE,139,4.0,7.0,81,0.00,,,2.06,,2013-05-27 21:43:00,
2013-05-27 16:53:00,76.0,70.0,29.69,SE,139,4.0,7.0,81,0.00,,,2.06,,2013-05-27 21:53:00,
2013-05-27 17:02:00,75.0,69.0,29.68,South,169,2.0,2.0,82,0.00,,,2.06,,2013-05-27 22:02:00,
2013-05-27 17:12:00,75.0,69.0,29.68,South,169,2.0,2.0,82,0.00,,,2.06,,2013-05-27 22:12:00,
2013-05-27 17:22:00,75.0,69.0,29.68,South,169,2.0,2.0,82,0.00,,,2.06,,2013-05-27 22:22:00,
2013-05-27 17:33:00,76.0,70.0,29.66,SE,145,4.0,4.0,82,0.00,,,2.06,,2013-05-27 22:33:00,
2013-05-27 17:42:00,76.0,70.0,29.66,SE,145,4.0,4.0,82,0.00,,,2.06,,2013-05-27 22:42:00,
2013-05-27 17:53:00,76.0,70.0,29.66,SE,145,4.0,4.0,82,0.00,,,2.06,,2013-05-27 22:53:00,
2013-05-27 18:02:00,78.0,71.0,29.66,ESE,115,3.0,3.0,79,0.00,,,2.06,,2013-05-27 23:02:00,
2013-05-27 18:12:00,78.0,71.0,29.66,ESE,115,3.0,3.0,79,0.00,,,2.06,,2013-05-27 23:12:00,
2013-05-27 18:22:00,78.0,71.0,29.66,ESE,115,3.0,3.0,79,0.00,,,2.06,,2013-05-27 23:22:00,
2013-05-27 18:32:00,79.0,69.0,29.67,SSW,193,4.0,7.0,71,0.00,,,2.06,,2013-05-27 23:32:00,
2013-05-27 18:42:00,79.0,69.0,29.67,SSW,193,4.0,7.0,71,0.00,,,2.06,,2013-05-27 23:42:00,
2013-05-27 18:52:00,79.0,69.0,29.67,SSW,193,4.0,7.0,71,0.00,,,2.06,,2013-05-27 23:52:00,
2013-05-27 19:01:00,79.0,68.0,29.67,South,172,3.0,4.0,70,0.00,,,2.06,,2013-05-28 00:01:00,
2013-05-27 19:11:00,79.0,68.0,29.67,South,172,3.0,4.0,70,0.00,,,2.06,,2013-05-28 00:11:00,
2013-05-27 19:21:00,79.0,68.0,29.67,South,172,3.0,4.0,70,0.00,,,2.06,,2013-05-28 00:21:00,
2013-05-27 19:31:00,79.0,69.0,29.65,SSE,150,2.0,4.0,71,0.00,,,2.06,,2013-05-28 00:31:00,
2013-05-27 19:41:00,79.0,69.0,29.65,SSE,150,2.0,4.0,71,0.00,,,2.06,,2013-05-28 00:41:00,
2013-05-27 19:52:00,79.0,69.0,29.65,SSE,150,2.0,4.0,71,0.00,,,2.06,,2013-05-28 00:52:00,
2013-05-27 20:01:00,79.0,69.0,29.65,SSE,150,2.0,4.0,71,0.00,,,2.06,,2013-05-28 01:01:00,
2013-05-27 20:11:00,79.0,69.0,29.65,SSE,150,2.0,4.0,71,0.00,,,2.06,,2013-05-28 01:11:00,
2013-05-27 20:22:00,78.0,68.0,29.67,SSE,153,3.0,4.0,71,0.00,,,0.00,,2013-05-28 01:22:00,
2013-05-27 20:32:00,78.0,68.0,29.67,SSE,153,3.0,4.0,71,0.00,,,0.00,,2013-05-28 01:32:00,
2013-05-27 20:42:00,78.0,68.0,29.67,SSE,153,3.0,4.0,71,0.00,,,0.00,,2013-05-28 01:42:00,
2013-05-27 20:52:00,78.0,68.0,29.67,South,191,3.0,5.0,72,0.00,,,0.00,,2013-05-28 01:52:00,
2013-05-27 21:02:00,78.0,68.0,29.67,South,191,3.0,5.0,72,0.00,,,0.00,,2013-05-28 02:02:00,
2013-05-27 21:11:00,78.0,68.0,29.67,South,191,3.0,5.0,72,0.00,,,0.00,,2013-05-28 02:11:00,
2013-05-27 21:21:00,77.0,68.0,29.65,SSW,199,2.0,4.0,73,0.00,,,0.00,,2013-05-28 02:21:00,
2013-05-27 21:32:00,77.0,68.0,29.65,SSW,199,2.0,4.0,73,0.00,,,0.00,,2013-05-28 02:32:00,
2013-05-27 21:42:00,77.0,68.0,29.65,SSW,199,2.0,4.0,73,0.00,,,0.00,,2013-05-28 02:42:00,
2013-05-27 21:52:00,77.0,68.0,29.66,SE,127,5.0,5.0,74,0.00,,,0.00,,2013-05-28 02:52:00,
2013-05-27 22:01:00,77.0,68.0,29.66,SE,127,5.0,5.0,74,0.00,,,0.00,,2013-05-28 03:01:00,
2013-05-27 22:11:00,77.0,68.0,29.66,SE,127,5.0,5.0,74,0.00,,,0.00,,2013-05-28 03:11:00,
2013-05-27 22:21:00,77.0,68.0,29.68,SE,130,3.0,4.0,74,0.00,,,0.00,,2013-05-28 03:21:00,
2013-05-27 22:33:00,77.0,68.0,29.68,SE,130,3.0,4.0,74,0.00,,,0.00,,2013-05-28 03:33:00,
2013-05-27 22:43:00,77.0,68.0,29.68,SE,130,3.0,4.0,74,0.00,,,0.00,,2013-05-28 03:43:00,
2013-05-27 22:53:00,76.0,67.0,29.69,SSE,155,3.0,7.0,74,0.00,,,0.00,,2013-05-28 03:53:00,
2013-05-27 23:02:00,76.0,67.0,29.69,SSE,155,3.0,7.0,74,0.00,,,0.00,,2013-05-28 04:02:00,
2013-05-27 23:13:00,76.0,67.0,29.68,South,186,3.0,4.0,73,0.00,,,0.00,,2013-05-28 04:13:00,
2013-05-27 23:22:00,76.0,67.0,29.68,South,186,3.0,4.0,73,0.00,,,0.00,,2013-05-28 04:22:00,
2013-05-27 23:33:00,76.0,67.0,29.68,South,186,3.0,4.0,73,0.00,,,0.00,,2013-05-28 04:33:00,
2013-05-27 23:43:00,76.0,67.0,29.68,South,186,3.0,4.0,73,0.00,,,0.00,,2013-05-28 04:43:00,
2013-05-27 23:53:00,76.0,66.0,29.67,SSE,157,3.0,7.0,72,0.00,,,0.00,,2013-05-28 04:53:00,